Weather History for Liberia, Costa Rica

Change the Weather History Date:

Thursday, April 4, 2013

  Actual Average Record
Temperature  
Mean Temperature 86 °F -  
Max Temperature 97 °F 93 °F 99 °F (2014)
Min Temperature 74 °F 76 °F 66 °F (2006)
Cooling Degree Days 20    
Growing Degree Days 36 (Base 50)    
Moisture  
Dew Point 67 °F    
Average Humidity 53    
Maximum Humidity 73    
Minimum Humidity 30    
Precipitation  
Precipitation 0.00 in - - ()
Sea Level Pressure  
Sea Level Pressure 29.85 in    
Wind  
Wind Speed 5 mph ()    
Max Wind Speed 14 mph    
Max Gust Speed -    
Visibility 8.0 miles    
Events      
Averages and records for this station are not official NWS values.
T = Trace of Precipitation, MM = Missing Value Source: Averaged Metar Reports

Daily Weather History Graph

Daily Weather History Graph

Search for Another Location

Airport:

Trip Planner

Search our weather history database for the weather conditions in past years. The results will help you decide how hot, cold, wet, or windy it might be!

Date:

Astronomy

Apr. 04, 2013 Rise Set
Actual Time 5:37 AM CST 5:52 PM CST
Civil Twilight 5:16 AM CST 6:14 PM CST
Nautical Twilight 4:51 AM CST 6:38 PM CST
Astronomical Twilight 4:26 AM CST 7:03 PM CST
Moon 1:03 AM CST (4/4) 1:06 PM CST (4/4)
Length of Visible Light 12h 57m
Length of Day
12h 15m
Waning Crescent, 33% of the Moon is Illuminated
Apr 4
Waning Crescent
Apr 10
New
Apr 18
First Quarter
Apr 25
Full
May 2
Last Quarter

Hourly Weather History & Observations

Time (CST) Temp. Heat Index Dew Point Humidity Pressure Visibility Wind Dir Wind Speed Gust Speed Precip Events Conditions
6:00 AM 75 °F - 67 °F 69% 29.88 in 12 mi SSE 3.5 mph - -   Clear
6:00 AM 75.2 °F - 66.2 °F 73% 29.86 in - SSE 3.5 mph - N/A   Clear
7:00 AM 82.4 °F 85.4 °F 68.0 °F 62% 29.88 in - WSW 5.8 mph - N/A   Clear
8:00 AM 84.2 °F 86.6 °F 66.2 °F 55% 29.90 in - Calm Calm - N/A   Clear
9:00 AM 88 °F - 64 °F 35% 29.93 in 12 mi South 5.8 mph - -   Clear
9:00 AM 87.8 °F 89.4 °F 64.4 °F 46% 29.91 in - South 4.6 mph - N/A   Clear
10:00 AM 89.6 °F 91.1 °F 64.4 °F 43% 29.90 in - WSW 3.5 mph - N/A   Clear
11:00 AM 91.4 °F 93.2 °F 64.4 °F 41% 29.88 in - SW 4.6 mph - N/A   Clear
12:00 PM 92 °F - 65 °F 30% 29.87 in 12 mi West 9.2 mph - -   Scattered Clouds
12:00 PM 93.2 °F 94.9 °F 64.4 °F 38% 29.85 in 6.2 mi West 9.2 mph - N/A   Scattered Clouds
1:00 PM 93.2 °F 94.9 °F 64.4 °F 38% 29.82 in 6.2 mi NNW 6.9 mph - N/A   Scattered Clouds
2:00 PM 95.0 °F 98.5 °F 66.2 °F 39% 29.80 in 6.2 mi WNW 6.9 mph - N/A   Mostly Cloudy
3:00 PM 88 °F - 66 °F 38% 29.79 in 12 mi WSW 13.8 mph - -   Overcast
3:00 PM 87.8 °F 90.4 °F 66.2 °F 49% 29.78 in 6.2 mi WSW 13.8 mph - N/A   Mostly Cloudy
4:00 PM 87.8 °F 90.4 °F 66.2 °F 49% 29.78 in 6.2 mi West 10.4 mph - N/A   Mostly Cloudy
5:00 PM 86.0 °F 88.2 °F 66.2 °F 51% 29.79 in 6.2 mi WSW 8.1 mph - N/A   Mostly Cloudy
6:00 PM 83 °F - 70 °F 57% 29.82 in 12 mi WNW 5.8 mph - -   Overcast
6:00 PM 82.4 °F 86.3 °F 69.8 °F 66% 29.81 in 6.2 mi WNW 5.8 mph - N/A   Mostly Cloudy
7:00 PM 82.4 °F 87.2 °F 71.6 °F 70% 29.84 in 6.2 mi WNW 3.5 mph - N/A   Mostly Cloudy
8:00 PM 80.6 °F 83.9 °F 69.8 °F 70% 29.86 in 6.2 mi NNE 3.5 mph - N/A   Mostly Cloudy
9:00 PM 80.6 °F 83.9 °F 69.8 °F 70% 29.88 in 6.2 mi NE 3.5 mph - N/A   Mostly Cloudy
10:00 PM 80.6 °F 83.9 °F 69.8 °F 70% 29.89 in 6.2 mi SE 4.6 mph - N/A   Mostly Cloudy